TimeMST,TemperatureF,Dew PointF,Humidity,Sea Level PressureIn,VisibilityMPH,Wind Direction,Wind SpeedMPH,Gust SpeedMPH,PrecipitationIn,Events,Conditions,WindDirDegrees,DateUTC
12:51 AM,1.0,-4.0,79,30.44,10.0,NW,4.6,-,N/A,,Partly Cloudy,320,2013-12-09 07:51:00
1:51 AM,1.0,-5.1,75,30.43,10.0,Calm,Calm,-,N/A,,Clear,0,2013-12-09 08:51:00
2:51 AM,-6.0,-11.0,79,30.52,10.0,NW,4.6,-,N/A,,Clear,310,2013-12-09 09:51:00
3:51 AM,-7.1,-11.9,79,30.56,10.0,Calm,Calm,-,N/A,,Clear,0,2013-12-09 10:51:00
4:51 AM,-8.0,-11.9,83,30.59,10.0,SSW,5.8,-,N/A,,Clear,210,2013-12-09 11:51:00
5:51 AM,-11.9,-15.0,86,30.65,10.0,Calm,Calm,-,N/A,,Clear,0,2013-12-09 12:51:00
6:51 AM,-7.1,-11.9,79,30.63,10.0,Calm,Calm,-,N/A,,Clear,0,2013-12-09 13:51:00
7:51 AM,-14.1,-17.0,87,30.68,10.0,North,3.5,-,N/A,,Clear,350,2013-12-09 14:51:00
8:51 AM,-8.0,-13.0,79,30.70,10.0,NNW,8.1,-,N/A,,Clear,330,2013-12-09 15:51:00
9:51 AM,-4.0,-9.0,79,30.74,10.0,NW,3.5,-,N/A,,Clear,310,2013-12-09 16:51:00
10:51 AM,-2.0,-6.0,83,30.77,9.0,WSW,6.9,-,N/A,,Clear,240,2013-12-09 17:51:00
11:51 AM,-0.9,-6.0,79,30.78,10.0,Calm,Calm,-,N/A,,Clear,0,2013-12-09 18:51:00
12:51 PM,1.9,-5.1,72,30.76,10.0,West,3.5,-,N/A,,Clear,270,2013-12-09 19:51:00
1:51 PM,5.0,-4.0,66,30.75,10.0,Calm,Calm,-,N/A,,Overcast,0,2013-12-09 20:51:00
2:51 PM,5.0,-4.0,66,30.76,10.0,WNW,3.5,-,N/A,,Overcast,290,2013-12-09 21:51:00
3:51 PM,7.0,-2.9,64,30.78,10.0,Calm,Calm,-,N/A,,Overcast,0,2013-12-09 22:51:00
4:51 PM,6.1,-2.0,69,30.79,10.0,West,4.6,-,N/A,,Overcast,260,2013-12-09 23:51:00
5:51 PM,5.0,-2.0,73,30.82,10.0,SSE,3.5,-,N/A,,Overcast,160,2013-12-10 00:51:00
6:51 PM,5.0,-2.0,73,30.79,10.0,WSW,5.8,-,N/A,,Overcast,240,2013-12-10 01:51:00
7:51 PM,6.1,-0.0,76,30.82,10.0,East,4.6,-,N/A,,Overcast,90,2013-12-10 02:51:00
8:51 PM,7.0,-0.0,73,30.79,10.0,Calm,Calm,-,N/A,,Overcast,0,2013-12-10 03:51:00
9:51 PM,7.0,1.0,77,30.77,10.0,WSW,3.5,-,N/A,,Overcast,240,2013-12-10 04:51:00
10:51 PM,9.0,1.0,70,30.75,10.0,Calm,Calm,-,N/A,,Overcast,0,2013-12-10 05:51:00
11:51 PM,8.1,1.9,76,30.73,10.0,Calm,Calm,-,N/A,,Overcast,0,2013-12-10 06:51:00